• In Belarus
  • List of Countries
  • For 7 days
  • Water Temperature
  • Satellite Maps
  • Weather Map
  • Weather Widgets
  • user-avatar
    Login

    Hourly Weather Muri

    Today, 21 June, Thursday

    Time Temperature Precipitation Wind Pressure Humidity
    00:00 +19°C° 0 mm 2 mps 715 mmHg 84%
    01:00 +20°C° 0 mm 1 mps 715 mmHg 86%
    02:00 +19°C° 0 mm 1 mps 715 mmHg 87%
    03:00 +19°C° 0 mm 1 mps 715 mmHg 89%
    04:00 +20°C° 0 mm 1 mps 715 mmHg 86%
    05:00 +21°C° 0 mm 1 mps 715 mmHg 84%
    06:00 +23°C° 0 mm 2 mps 715 mmHg 80%
    07:00 +24°C° 0.1 mm 2 mps 715 mmHg 75%
    08:00 +25°C° 0.1 mm 2 mps 715 mmHg 70%
    09:00 +26°C° 0.1 mm 2 mps 714 mmHg 65%
    10:00 +27°C° 0.4 mm 2 mps 714 mmHg 62%
    11:00 +27°C° 0.4 mm 3 mps 714 mmHg 60%
    12:00 +28°C° 0 mm 3 mps 714 mmHg 57%
    13:00 +28°C° 0.3 mm 3 mps 714 mmHg 58%
    14:00 +27°C° 0.3 mm 3 mps 714 mmHg 59%
    15:00 +27°C° 0.3 mm 3 mps 714 mmHg 60%
    16:00 +25°C° 0.6 mm 3 mps 714 mmHg 69%
    17:00 +23°C° 0.6 mm 2 mps 714 mmHg 79%
    18:00 +21°C° 0.6 mm 2 mps 714 mmHg 88%
    19:00 +20°C° 0.4 mm 2 mps 714 mmHg 90%
    20:00 +18°C° 0.4 mm 2 mps 715 mmHg 91%
    21:00 +17°C° 0.4 mm 2 mps 715 mmHg 93%
    22:00 +16°C° 0.1 mm 2 mps 716 mmHg 93%
    23:00 +15°C° 0.1 mm 2 mps 716 mmHg 93%

    Tomorrow, 22 June, Friday

    Time Temperature Precipitation Wind Pressure Humidity
    00:00 +15°C° 0.1 mm 2 mps 716 mmHg 93%
    01:00 +14°C° 0 mm 2 mps 716 mmHg 93%
    02:00 +13°C° 0 mm 2 mps 716 mmHg 93%
    03:00 +12°C° 0 mm 2 mps 716 mmHg 94%
    04:00 +12°C° 0 mm 2 mps 716 mmHg 91%
    05:00 +12°C° 0 mm 2 mps 716 mmHg 88%
    06:00 +13°C° 0 mm 2 mps 716 mmHg 86%
    07:00 +13°C° 0 mm 3 mps 716 mmHg 76%
    08:00 +16°C° 0 mm 3 mps 717 mmHg 66%
    09:00 +17°C° 0 mm 3 mps 717 mmHg 56%
    10:00 +18°C° 0 mm 3 mps 717 mmHg 51%
    11:00 +19°C° 0 mm 3 mps 717 mmHg 46%
    12:00 +20°C° 0 mm 4 mps 717 mmHg 41%
    13:00 +20°C° 0 mm 4 mps 717 mmHg 42%
    14:00 +20°C° 0 mm 4 mps 717 mmHg 43%
    15:00 +20°C° 0 mm 4 mps 717 mmHg 43%
    16:00 +19°C° 0 mm 4 mps 717 mmHg 50%
    17:00 +18°C° 0 mm 3 mps 717 mmHg 56%
    18:00 +17°C° 0 mm 3 mps 717 mmHg 62%
    19:00 +14°C° 0 mm 3 mps 717 mmHg 70%
    20:00 +13°C° 0 mm 2 mps 717 mmHg 79%
    21:00 +10°C° 0 mm 2 mps 718 mmHg 87%
    22:00 +10°C° 0 mm 1 mps 718 mmHg 89%
    23:00 +10°C° 0 mm 1 mps 717 mmHg 90%

    Day after tomorrow, 23 June, Saturday

    Time Temperature Precipitation Wind Pressure Humidity
    00:00 +9°C° 0 mm 1 mps 717 mmHg 92%
    01:00 +9°C° 0 mm 1 mps 717 mmHg 92%
    02:00 +8°C° 0 mm 1 mps 717 mmHg 92%
    03:00 +8°C° 0 mm 1 mps 717 mmHg 92%
    04:00 +10°C° 0 mm 1 mps 717 mmHg 85%
    05:00 +10°C° 0 mm 2 mps 717 mmHg 79%
    06:00 +13°C° 0 mm 2 mps 717 mmHg 72%
    07:00 +14°C° 0 mm 2 mps 717 mmHg 65%
    08:00 +16°C° 0 mm 2 mps 717 mmHg 59%
    09:00 +18°C° 0 mm 3 mps 717 mmHg 52%
    10:00 +19°C° 0 mm 3 mps 717 mmHg 49%
    11:00 +20°C° 0 mm 3 mps 717 mmHg 46%
    12:00 +21°C° 0 mm 3 mps 717 mmHg 43%
    13:00 +21°C° 0 mm 3 mps 717 mmHg 43%
    14:00 +22°C° 0 mm 3 mps 716 mmHg 44%
    15:00 +22°C° 0 mm 3 mps 716 mmHg 44%
    16:00 +21°C° 0 mm 3 mps 716 mmHg 51%
    17:00 +19°C° 0 mm 3 mps 716 mmHg 57%
    18:00 +18°C° 0 mm 2 mps 716 mmHg 63%
    19:00 +16°C° 0 mm 2 mps 716 mmHg 70%
    20:00 +14°C° 0 mm 2 mps 716 mmHg 77%
    21:00 +12°C° 0 mm 1 mps 716 mmHg 84%
    22:00 +12°C° 0 mm 1 mps 716 mmHg 84%
    23:00 +12°C° 0 mm 1 mps 716 mmHg 84%

    24 June, Sunday

    Time Temperature Precipitation Wind Pressure Humidity
    00:00 +12°C° 0 mm 1 mps 715 mmHg 84%
    01:00 +12°C° 0.1 mm 1 mps 715 mmHg 86%
    02:00 +11°C° 0.1 mm 1 mps 715 mmHg 89%
    03:00 +11°C° 0.1 mm 1 mps 715 mmHg 91%
    04:00 +12°C° 0 mm 1 mps 715 mmHg 88%
    05:00 +13°C° 0 mm 1 mps 715 mmHg 85%
    06:00 +14°C° 0 mm 1 mps 715 mmHg 82%
    07:00 +15°C° 0 mm 2 mps 715 mmHg 74%
    08:00 +17°C° 0 mm 2 mps 715 mmHg 66%
    09:00 +19°C° 0 mm 3 mps 715 mmHg 58%
    10:00 +19°C° 0 mm 3 mps 715 mmHg 54%
    11:00 +20°C° 0 mm 3 mps 714 mmHg 51%
    12:00 +21°C° 0 mm 3 mps 714 mmHg 48%
    13:00 +21°C° 0 mm 3 mps 714 mmHg 50%
    14:00 +21°C° 0 mm 3 mps 714 mmHg 51%
    15:00 +21°C° 0 mm 4 mps 714 mmHg 53%
    16:00 +20°C° 0 mm 3 mps 714 mmHg 58%
    17:00 +19°C° 0 mm 3 mps 714 mmHg 64%
    18:00 +18°C° 0 mm 3 mps 714 mmHg 70%
    19:00 +16°C° 0 mm 2 mps 714 mmHg 77%
    20:00 +14°C° 0 mm 2 mps 714 mmHg 84%
    21:00 +12°C° 0 mm 2 mps 714 mmHg 91%
    22:00 +12°C° 0 mm 1 mps 714 mmHg 92%
    23:00 +11°C° 0 mm 1 mps 714 mmHg 93%

    25 June, Monday

    Time Temperature Precipitation Wind Pressure Humidity
    00:00 +11°C° 0 mm 1 mps 714 mmHg 94%
    01:00 +10°C° 0 mm 1 mps 713 mmHg 93%
    02:00 +10°C° 0 mm 1 mps 713 mmHg 93%
    03:00 +10°C° 0 mm 1 mps 713 mmHg 93%
    04:00 +11°C° 0 mm 1 mps 713 mmHg 88%
    05:00 +12°C° 0 mm 2 mps 714 mmHg 84%
    06:00 +14°C° 0 mm 2 mps 714 mmHg 79%
    07:00 +15°C° 0 mm 2 mps 714 mmHg 72%
    08:00 +17°C° 0 mm 3 mps 714 mmHg 64%
    09:00 +19°C° 0 mm 3 mps 714 mmHg 57%
    10:00 +20°C° 0 mm 3 mps 714 mmHg 54%
    11:00 +21°C° 0 mm 4 mps 714 mmHg 51%
    12:00 +22°C° 0 mm 4 mps 714 mmHg 48%
    13:00 +22°C° 0 mm 4 mps 714 mmHg 49%
    14:00 +22°C° 0 mm 4 mps 714 mmHg 49%
    15:00 +22°C° 0 mm 4 mps 714 mmHg 50%
    16:00 +21°C° 0 mm 3 mps 714 mmHg 55%
    17:00 +20°C° 0 mm 3 mps 714 mmHg 61%
    18:00 +19°C° 0 mm 3 mps 714 mmHg 67%
    19:00 +17°C° 0 mm 3 mps 714 mmHg 74%
    20:00 +15°C° 0 mm 2 mps 714 mmHg 82%
    21:00 +13°C° 0 mm 2 mps 714 mmHg 90%
    22:00 +13°C° 0 mm 2 mps 714 mmHg 91%
    23:00 +12°C° 0 mm 2 mps 714 mmHg 92%

    26 June, Tuesday

    Time Temperature Precipitation Wind Pressure Humidity
    00:00 +11°C° 0 mm 1 mps 713 mmHg 93%
    01:00 +11°C° 0 mm 1 mps 713 mmHg 93%
    02:00 +11°C° 0 mm 1 mps 713 mmHg 93%
    03:00 +11°C° 0 mm 1 mps 713 mmHg 93%
    04:00 +12°C° 0 mm 1 mps 713 mmHg 89%
    05:00 +13°C° 0 mm 1 mps 713 mmHg 84%
    06:00 +15°C° 0 mm 1 mps 714 mmHg 80%
    07:00 +17°C° 0 mm 2 mps 714 mmHg 72%
    08:00 +18°C° 0 mm 2 mps 714 mmHg 63%
    09:00 +20°C° 0 mm 3 mps 714 mmHg 55%
    10:00 +21°C° 0 mm 3 mps 714 mmHg 51%
    11:00 +24°C° 0 mm 3 mps 714 mmHg 47%
    12:00 +25°C° 0 mm 4 mps 714 mmHg 43%
    13:00 +25°C° 0 mm 4 mps 714 mmHg 44%
    14:00 +25°C° 0 mm 4 mps 714 mmHg 45%
    15:00 +25°C° 0 mm 4 mps 714 mmHg 46%
    16:00 +24°C° 0 mm 3 mps 714 mmHg 53%
    17:00 +22°C° 0 mm 3 mps 714 mmHg 59%
    18:00 +21°C° 0 mm 3 mps 713 mmHg 66%
    19:00 +19°C° 0 mm 2 mps 714 mmHg 73%
    20:00 +17°C° 0 mm 2 mps 714 mmHg 80%
    21:00 +15°C° 0 mm 2 mps 714 mmHg 87%
    22:00 +14°C° 0 mm 2 mps 714 mmHg 89%
    23:00 +14°C° 0 mm 1 mps 714 mmHg 90%
    Show more